This is the latest recevied weather packets stored in our database for station/object BARLOW-WX. If no packets are shown the sender has not sent any weather packets the latest 10 day(s).
| Time | Temp. | Humidity | Pressure | Rain* | Wind** | Luminosity | Snow |
|---|---|---|---|---|---|---|---|
| 1787711484 | 17.78° C | 85% | 989 hPa | 0 mm | - | - | - |
| 1787710583 | 18.33° C | 85% | 989 hPa | 0 mm | - | - | - |
| 1787709684 | 18.33° C | 80% | 988.7 hPa | 0 mm | - | - | - |
| 1787708782 | 18.33° C | 76% | 989 hPa | 0 mm | - | - | - |
| 1787707882 | 18.89° C | 76% | 989 hPa | 0 mm | - | - | - |
| 1787706977 | 18.89° C | 76% | 989 hPa | 0 mm | - | - | - |
| 1787706081 | 19.44° C | 76% | 989 hPa | 0 mm | - | - | - |
| 1787705179 | 20° C | 69% | 989.1 hPa | 0 mm | - | - | - |
| 1787704280 | 20° C | 63% | 989.4 hPa | 0 mm | - | - | - |
| 1787703380 | 20.56° C | 63% | 989.4 hPa | 0 mm | - | - | - |
| 1787702482 | 21.11° C | 63% | 989.4 hPa | 0 mm | - | - | - |
| 1787701586 | 21.67° C | 57% | 989.6 hPa | 0 mm | - | - | - |
| 1787700684 | 22.22° C | 55% | 989.3 hPa | 0 mm | - | - | - |
| 1787699783 | 22.78° C | 55% | 989.3 hPa | 0 mm | - | - | - |
| 1787698883 | 23.33° C | 55% | 989.3 hPa | 0 mm | - | - | - |
| 1787697983 | 23.89° C | 57% | 989.8 hPa | 0 mm | - | - | - |
| 1787697391 | 23.89° C | 48% | 990.2 hPa | 0 mm | - | - | - |
| 1787696183 | 23.89° C | 48% | 990.2 hPa | 0 mm | - | - | - |
| 1787695282 | 24.44° C | 48% | 990.2 hPa | 0 mm | - | - | - |
| 1787694381 | 24.44° C | 50% | 989.8 hPa | 0 mm | - | - | - |
| 1787693479 | 24.44° C | 46% | 990.3 hPa | 0 mm | - | - | - |
| 1787692582 | 24.44° C | 46% | 990.3 hPa | 0 mm | - | - | - |
| 1787691683 | 24.44° C | 46% | 990.3 hPa | 0 mm | - | - | - |
| 1787690782 | 24.44° C | 56% | 990 hPa | 0 mm | - | - | - |
| 1787689882 | 24.44° C | 51% | 989.8 hPa | 0 mm | - | - | - |
* Rain latest hour (hover to see other rain measurements)
** Current wind speed in m/s (hover to see current wind gust speed)